Nakhchivan — 9HHK8 — position and weather

sailwx.info

Track history (hours):
 
Tides and Currents Weather Stations Pressure Air Temp Water Temp Dewpoint Dewpoint Depression Visibility Wind Speed Wind Dir Waves Ship Positions

Nakhchivan

Last reported at 2014-Nov-24 23:33 UTC. Time now 2014-Nov-26 07:49 UTC.
Position N 37°53' W 009°37'.

Length 139 m; draft 4.5 m.

Type: Cargo ship. MMSI: 215983000.

Date/timePositionNaut miles runAvg speedWind from/ knotsBaromVisibWave heightAir tempDewpointWater temp
2014-Nov-24 23:33N 37°53' W 009°37'7 7.0
2014-Nov-24 22:33N 37°46' W 009°35'22 7.0
2014-Nov-24 19:26N 37°25' W 009°28'215 4.8
2014-Nov-22 22:33N 35°58' W 005°22'4 4.2
2014-Nov-22 21:33N 35°55' W 005°19'2 1.5
2014-Nov-22 20:30N 35°54' W 005°18'0 0.0
2014-Nov-22 19:30N 35°54' W 005°18'0 0.0
2014-Nov-22 18:30N 35°54' W 005°18'0 0.0
2014-Nov-22 17:25N 35°54' W 005°18'1 0.9
2014-Nov-22 16:33N 35°54' W 005°19'1 0.5
2014-Nov-22 15:26N 35°55' W 005°19'0 0.0
2014-Nov-22 14:27N 35°55' W 005°19'0 0.1
2014-Nov-22 13:31N 35°55' W 005°19'2 2.5
2014-Nov-22 12:33N 35°55' W 005°16'0 0.1
2014-Nov-22 10:29N 35°55' W 005°16'  
2014-Nov-20 01:25N 36°56' E 001°43'46 5.8
2014-Nov-19 17:26N 37°02' E 002°40'27 6.9
2014-Nov-19 13:33N 37°07' E 003°13'15 6.3
2014-Nov-19 11:07N 37°08' E 003°33'10 6.4
2014-Nov-19 09:33N 37°09' E 003°45'  
2014-Nov-15 23:27N 36°23' E 013°49'7 7.1
2014-Nov-15 22:31N 36°20' E 013°56'22 6.9
2014-Nov-15 19:21N 36°09' E 014°20'7 7.5
2014-Nov-15 18:22N 36°03' E 014°24'3 1.9
2014-Nov-15 16:32N 35°59' E 014°25'  
Track history (hours):
 
Tides and Currents Weather Stations Pressure Air Temp Water Temp Dewpoint Dewpoint Depression Visibility Wind Speed Wind Dir Waves Ship Positions

Nakhchivan

Last reported at 2014-Nov-24 23:33 UTC. Time now 2014-Nov-26 07:49 UTC.
Position N 37°53' W 009°37'.

Length 139 m; draft 4.5 m.

Type: Cargo ship. MMSI: 215983000.

Date/timePositionNaut miles runAvg speedWind from/ knotsBaromVisibWave heightAir tempDewpointWater temp
2014-Nov-24 23:33N 37°53' W 009°37'7 7.0
2014-Nov-24 22:33N 37°46' W 009°35'22 7.0
2014-Nov-24 19:26N 37°25' W 009°28'215 4.8
2014-Nov-22 22:33N 35°58' W 005°22'4 4.2
2014-Nov-22 21:33N 35°55' W 005°19'2 1.5
2014-Nov-22 20:30N 35°54' W 005°18'0 0.0
2014-Nov-22 19:30N 35°54' W 005°18'0 0.0
2014-Nov-22 18:30N 35°54' W 005°18'0 0.0
2014-Nov-22 17:25N 35°54' W 005°18'1 0.9
2014-Nov-22 16:33N 35°54' W 005°19'1 0.5
2014-Nov-22 15:26N 35°55' W 005°19'0 0.0
2014-Nov-22 14:27N 35°55' W 005°19'0 0.1
2014-Nov-22 13:31N 35°55' W 005°19'2 2.5
2014-Nov-22 12:33N 35°55' W 005°16'0 0.1
2014-Nov-22 10:29N 35°55' W 005°16'  
2014-Nov-20 01:25N 36°56' E 001°43'46 5.8
2014-Nov-19 17:26N 37°02' E 002°40'27 6.9
2014-Nov-19 13:33N 37°07' E 003°13'15 6.3
2014-Nov-19 11:07N 37°08' E 003°33'10 6.4
2014-Nov-19 09:33N 37°09' E 003°45'  
2014-Nov-15 23:27N 36°23' E 013°49'7 7.1
2014-Nov-15 22:31N 36°20' E 013°56'22 6.9
2014-Nov-15 19:21N 36°09' E 014°20'7 7.5
2014-Nov-15 18:22N 36°03' E 014°24'3 1.9
2014-Nov-15 16:32N 35°59' E 014°25'  

Dump ship's entire track history